| time (UTC) | temp F | wind direction | speed knots | gust knots | rain 1hr in | rain 24hr in | rain mn in | humidity % | barometer mb |
| 20260504173028 | 49 | 279 | 11.3 | 16.5 | 0.00 | 0.00 | 0.00 | 73 | 1002.4 |
| 20260504171527 | 49 | 277 | 7.0 | 19.1 | 0.00 | 0.00 | 0.00 | 71 | 1002.3 |
| 20260504081504 | 28 | 227 | 5.2 | 7.0 | 0.00 | 0.00 | 0.00 | 93 | 1004.2 |
| 20260504044539 | 30 | 142 | 0.9 | 2.6 | 0.00 | 0.00 | 0.00 | 86 | 1004.8 |
| 20260504043036 | 31 | 298 | 1.7 | 5.2 | 0.00 | 0.00 | 0.00 | 85 | 1004.7 |
| 20260504041534 | 32 | 272 | 3.5 | 9.6 | 0.00 | 0.00 | 0.00 | 85 | 1004.9 |
| 20260504040031 | 31 | 260 | 3.5 | 5.2 | 0.00 | 0.00 | 0.00 | 85 | 1004.8 |
| 20260504034528 | 32 | 275 | 1.7 | 3.5 | 0.00 | 0.00 | 0.00 | 84 | 1004.5 |
| 20260504033025 | 33 | 259 | 2.6 | 3.5 | 0.00 | 0.00 | 0.00 | 82 | 1004.5 |
| 20260504031524 | 34 | 272 | 1.7 | 2.6 | 0.00 | 0.00 | 0.00 | 80 | 1004.6 |
| 20260504030022 | 35 | 281 | 1.7 | 2.6 | 0.00 | 0.00 | 0.00 | 78 | 1004.9 |
| 20260504024521 | 36 | 321 | 0.0 | 2.6 | 0.00 | 0.01 | 0.00 | 75 | 1005.0 |
| 20260504023022 | 39 | 313 | 0.9 | 2.6 | 0.00 | 0.01 | 0.00 | 68 | 1005.0 |
| 20260504021521 | 40 | 310 | 2.6 | 7.0 | 0.00 | 0.01 | 0.00 | 64 | 1005.1 |
| 20260504020028 | 41 | 33 | 1.7 | 9.6 | 0.00 | 0.01 | 0.00 | 63 | 1005.2 |
| 20260504014538 | 41 | 360 | 2.6 | 7.0 | 0.00 | 0.01 | 0.00 | 63 | 1005.4 |
| 20260504013020 | 41 | 338 | 5.2 | 12.2 | 0.00 | 0.01 | 0.00 | 62 | 1005.6 |
| 20260504011520 | 42 | 336 | 6.1 | 13.0 | 0.00 | 0.01 | 0.00 | 62 | 1005.6 |
| 20260504010019 | 42 | 23 | 10.4 | 16.5 | 0.00 | 0.01 | 0.00 | 62 | 1005.3 |
| 20260504004517 | 43 | 355 | 4.3 | 8.7 | 0.00 | 0.01 | 0.00 | 71 | 1005.1 |
| 20260504003016 | 43 | 33 | 4.3 | 9.6 | 0.00 | 0.01 | 0.00 | 72 | 1004.7 |
| 20260504001518 | 43 | 47 | 2.6 | 5.2 | 0.00 | 0.01 | 0.00 | 75 | 1004.6 |
| 20260504000033 | 43 | 74 | 3.5 | 7.0 | 0.00 | 0.01 | 0.00 | 74 | 1004.5 |
| 20260503234515 | 43 | 40 | 3.5 | 7.8 | 0.00 | 0.01 | 0.00 | 73 | 1004.4 |
| 20260503233019 | 44 | 57 | 4.3 | 7.8 | 0.00 | 0.01 | 0.00 | 72 | 1004.3 |
| 20260503231514 | 44 | 28 | 4.3 | 11.3 | 0.00 | 0.01 | 0.00 | 71 | 1004.2 |
| 20260503230014 | 44 | 68 | 4.3 | 13.9 | 0.00 | 0.01 | 0.00 | 71 | 1004.1 |
| 20260503224513 | 44 | 42 | 5.2 | 12.2 | 0.00 | 0.01 | 0.00 | 72 | 1004.0 |
| 20260503223013 | 44 | 57 | 5.2 | 13.9 | 0.00 | 0.01 | 0.00 | 72 | 1003.9 |
| 20260503221512 | 44 | 59 | 9.6 | 13.0 | 0.00 | 0.01 | 0.00 | 73 | 1003.8 |
| 20260503220017 | 44 | 65 | 6.1 | 13.9 | 0.00 | 0.01 | 0.00 | 75 | 1003.8 |
| 20260503214522 | 44 | 36 | 8.7 | 17.4 | 0.00 | 0.02 | 0.00 | 75 | 1003.9 |
| 20260503213010 | 45 | 63 | 10.4 | 16.5 | 0.00 | 0.02 | 0.00 | 72 | 1004.0 |
| 20260503211512 | 46 | 49 | 9.6 | 15.6 | 0.00 | 0.02 | 0.00 | 69 | 1004.0 |
| 20260503210026 | 47 | 28 | 10.4 | 15.6 | 0.00 | 0.02 | 0.00 | 64 | 1004.0 |
| 20260503204511 | 48 | 9 | 7.0 | 11.3 | 0.00 | 0.02 | 0.00 | 62 | 1004.0 |
| 20260503203014 | 48 | 19 | 6.1 | 13.0 | 0.00 | 0.02 | 0.00 | 61 | 1004.0 |
| 20260503201511 | 49 | 25 | 5.2 | 10.4 | 0.00 | 0.02 | 0.00 | 59 | 1004.0 |
| 20260503200007 | 49 | 11 | 6.1 | 11.3 | 0.00 | 0.02 | 0.00 | 59 | 1004.0 |
| 20260503194507 | 50 | 342 | 4.3 | 8.7 | 0.00 | 0.02 | 0.00 | 55 | 1004.0 |
| 20260503193006 | 50 | 13 | 6.1 | 9.6 | 0.00 | 0.02 | 0.00 | 56 | 1004.2 |
| 20260503191505 | 51 | 342 | 5.2 | 10.4 | 0.00 | 0.02 | 0.00 | 57 | 1004.0 |
| 20260503190004 | 50 | 348 | 8.7 | 12.2 | 0.00 | 0.02 | 0.00 | 62 | 1004.0 |
| 20260503184503 | 50 | 234 | 4.3 | 12.2 | 0.00 | 0.02 | 0.00 | 60 | 1004.1 |
| 20260503183001 | 50 | 19 | 6.1 | 10.4 | 0.00 | 0.02 | 0.00 | 63 | 1004.3 |
| 20260503181600 | 49 | 22 | 7.0 | 13.9 | 0.00 | 0.02 | 0.00 | 69 | 1004.5 |
| 20260503180107 | 48 | 5 | 7.0 | 12.2 | 0.00 | 0.02 | 0.00 | 67 | 1004.6 |
| 20260503174556 | 48 | 13 | 6.1 | 10.4 | 0.00 | 0.02 | 0.00 | 73 | 1004.9 |